FW1847 Weather Reports


time (UTC)temp
C
wind
direction
speed
KPH
gust
KPH
rain 1hr
cm
rain 24hr
cm
rain mn
cm
humidity
%
barometer
mb
20260506200810 9 347 1.6 3.2 0.00 0.58 0.58 87 1010.2
20260506200311 9 347 1.6 3.2 0.00 0.58 0.58 87 1010.2
20260506195811 9 347 1.6 3.2 0.00 0.58 0.58 87 1010.2
20260506195311 9 347 1.6 3.2 0.00 0.58 0.58 87 1010.2
20260506194810 9 347 1.6 3.2 0.00 0.58 0.58 87 1010.2
20260506193811 9 347 0.0 1.6 0.00 0.58 0.58 86 1010.2
20260506193310 9 347 0.0 1.6 0.00 0.58 0.58 86 1010.2
20260506192812 9 347 0.0 1.6 0.00 0.58 0.58 86 1010.1
20260506192309 9 347 0.0 1.6 0.00 0.58 0.58 86 1010.0
20260506191808 9 347 0.0 1.6 0.00 0.58 0.58 86 1010.0
20260506191309 9 347 0.0 1.6 0.00 0.58 0.58 86 1009.9
20260506190806 9 347 0.0 1.6 0.00 0.58 0.58 86 1009.9
20260506184800 9 347 1.6 4.8 0.03 0.58 0.58 86 1009.7
20260506184301 9 347 1.6 4.8 0.03 0.58 0.58 86 1009.6
20260506183759 9 347 0.0 3.2 0.03 0.58 0.58 86 1009.6
20260506183259 9 347 1.6 3.2 0.03 0.58 0.58 86 1009.5
20260506182753 9 347 1.6 3.2 0.03 0.58 0.58 86 1009.5
20260506181741 9 347 1.6 3.2 0.03 0.58 0.58 86 1009.5
20260506181235 9 347 1.6 4.8 0.03 0.58 0.58 86 1009.5
20260506180730 9 347 1.6 4.8 0.03 0.58 0.58 86 1009.5
20260506180223 9 347 1.6 6.4 0.05 0.58 0.58 86 1009.4
20260506175717 9 347 3.2 6.4 0.05 0.58 0.58 85 1009.3
20260506174200 9 11 1.6 9.7 0.03 0.56 0.56 86 1009.3
20260506173653 9 13 3.2 9.7 0.03 0.56 0.56 85 1009.2
20260506173147 9 336 3.2 8.0 0.03 0.56 0.56 85 1009.2
20260506172642 9 17 3.2 8.0 0.03 0.56 0.56 85 1009.2
20260506172135 9 58 3.2 11.3 0.05 0.56 0.56 85 1009.1
20260506171124 9 61 1.6 8.0 0.05 0.56 0.56 86 1009.0
20260506170617 9 57 1.6 4.8 0.03 0.53 0.56 86 1009.0
20260506170112 9 57 1.6 4.8 0.05 0.53 0.53 86 1009.0
20260506165059 9 51 1.6 8.0 0.05 0.53 0.53 86 1009.0
20260506164558 9 43 0.0 3.2 0.05 0.53 0.53 86 1009.1
20260506164044 9 43 1.6 4.8 0.05 0.53 0.53 86 1009.0
20260506163537 9 40 1.6 4.8 0.05 0.53 0.53 86 1009.0
20260506163031 9 37 1.6 4.8 0.05 0.53 0.53 86 1009.0
20260506162020 9 37 3.2 6.4 0.05 0.51 0.51 86 1009.0
20260506161008 9 37 1.6 4.8 0.08 0.51 0.51 86 1009.0
20260506160501 9 38 1.6 6.4 0.08 0.51 0.51 86 1009.0
20260506155956 9 38 3.2 6.4 0.08 0.51 0.51 85 1009.1
20260506155450 9 24 3.2 9.7 0.08 0.51 0.51 85 1009.1
20260506154948 9 22 4.8 9.7 0.08 0.51 0.51 84 1009.1
20260506152945 9 10 3.2 9.7 0.08 0.46 0.48 84 1009.1
20260506152445 9 16 3.2 9.7 0.08 0.46 0.46 84 1009.1
20260506151945 9 16 4.8 11.3 0.08 0.46 0.46 84 1009.1
20260506151446 9 34 3.2 11.3 0.08 0.43 0.43 84 1009.1
20260506150946 9 25 4.8 11.3 0.10 0.43 0.43 83 1009.2
20260506150445 9 352 6.4 11.3 0.10 0.43 0.43 83 1009.1
20260506145945 9 26 6.4 12.9 0.10 0.43 0.43 83 1009.1
20260506145446 9 6 4.8 12.9 0.10 0.43 0.43 83 1009.0
20260506144946 9 37 4.8 12.9 0.13 0.43 0.43 83 1009.1
20260506144446 8 42 6.4 16.1 0.13 0.41 0.41 82 1009.1
20260506143445 8 23 6.4 14.5 0.15 0.41 0.41 82 1009.0
20260506142945 8 10 6.4 14.5 0.13 0.38 0.38 83 1009.0
20260506142446 8 23 6.4 12.9 0.15 0.38 0.38 83 1009.0
20260506141946 8 41 4.8 12.9 0.15 0.38 0.38 83 1009.0
20260506141447 8 15 6.4 12.9 0.15 0.36 0.36 83 1008.9
20260506140944 8 14 6.4 12.9 0.13 0.33 0.33 83 1009.0
20260506135945 8 24 4.8 12.9 0.13 0.33 0.33 83 1009.0
20260506135448 8 11 4.8 12.9 0.13 0.33 0.33 83 1009.0
20260506134942 8 19 3.2 12.9 0.10 0.30 0.30 83 1009.0
20260506134441 8 5 3.2 11.3 0.10 0.28 0.30 83 1009.0
20260506133940 8 33 4.8 11.3 0.10 0.28 0.28 82 1009.0
20260506133442 8 32 6.4 12.9 0.10 0.25 0.25 82 1009.1
20260506132943 8 21 8.0 16.1 0.10 0.25 0.25 82 1009.1
20260506131940 8 13 6.4 16.1 0.13 0.23 0.23 81 1009.0
20260506131441 8 50 6.4 17.7 0.10 0.23 0.23 81 1009.0
20260506130944 8 20 8.0 17.7 0.13 0.23 0.23 80 1008.9
20260506130441 8 352 6.4 17.7 0.13 0.23 0.23 80 1008.9
20260506125938 8 23 6.4 17.7 0.13 0.20 0.20 80 1008.9
20260506125439 8 21 8.0 17.7 0.13 0.20 0.20 80 1008.9
20260506124938 8 24 8.0 17.7 0.13 0.20 0.20 80 1008.9
20260506124436 8 33 9.7 19.3 0.13 0.18 0.18 79 1008.8
20260506123435 8 37 9.7 16.1 0.13 0.15 0.18 79 1008.8
20260506122434 8 39 6.4 19.3 0.10 0.15 0.15 80 1008.8
20260506121935 8 13 6.4 12.9 0.08 0.13 0.15 80 1008.8
20260506121435 8 24 6.4 14.5 0.10 0.13 0.13 80 1008.8
20260506115433 8 32 11.3 17.7 0.05 0.08 0.08 77 1008.6
20260506114933 8 66 9.7 20.9 0.08 0.08 0.08 77 1008.6
20260506114428 8 41 9.7 20.9 0.05 0.05 0.05 77 1008.5
20260506113930 8 41 8.0 19.3 0.05 0.05 0.05 77 1008.5
20260506113416 8 33 8.0 17.7 0.05 0.05 0.05 77 1008.6
20260506112910 9 41 8.0 17.7 0.05 0.05 0.05 76 1008.5
20260506112403 9 12 8.0 17.7 0.05 0.05 0.05 77 1008.5
20260506111857 9 40 9.7 19.3 0.05 0.05 0.05 76 1008.5
20260506110847 9 45 8.0 16.1 0.03 0.03 0.03 75 1008.4
20260506105328 9 60 8.0 19.3 0.03 0.03 0.03 73 1008.4
20260506104823 9 39 9.7 19.3 0.00 0.00 0.00 73 1008.4
20260506104316 9 32 11.3 24.1 0.00 0.00 0.00 71 1008.4
20260506103810 9 36 12.9 25.7 0.00 0.00 0.00 71 1008.4
20260506102759 10 53 11.3 22.5 0.00 0.00 0.00 73 1008.4
20260506102252 10 354 14.5 24.1 0.00 0.00 0.00 71 1008.3
20260506101746 10 53 12.9 22.5 0.00 0.00 0.00 70 1008.3
20260506101240 10 28 12.9 25.7 0.00 0.00 0.00 70 1008.2
20260506100734 10 42 11.3 25.7 0.00 0.00 0.00 70 1008.2
20260506100228 10 8 11.3 25.7 0.00 0.00 0.00 69 1008.1
20260506095722 10 10 11.3 25.7 0.00 0.00 0.00 69 1008.1
20260506095217 10 3 12.9 25.7 0.00 0.00 0.00 70 1008.1
20260506094710 10 35 11.3 20.9 0.00 0.00 0.00 69 1008.1
20260506093659 10 29 11.3 22.5 0.00 0.00 0.00 66 1008.0
20260506093153 10 39 11.3 27.4 0.00 0.00 0.00 65 1008.1
20260506092649 10 28 9.7 27.4 0.00 0.00 0.00 64 1008.0
20260506092140 10 25 9.7 20.9 0.00 0.00 0.00 65 1008.0
20260506091635 10 30 9.7 22.5 0.00 0.00 0.00 64 1008.0
20260506091129 10 31 9.7 22.5 0.00 0.00 0.00 64 1008.0
20260506090623 10 10 9.7 19.3 0.00 0.00 0.00 64 1007.9
20260506090125 10 38 9.7 20.9 0.00 0.00 0.00 65 1008.0
20260506085610 10 44 9.7 20.9 0.00 0.00 0.00 65 1007.9
20260506085104 10 18 9.7 20.9 0.00 0.00 0.00 65 1008.0
20260506084558 10 9 9.7 20.9 0.00 0.00 0.00 66 1008.0
20260506084052 10 41 9.7 17.7 0.00 0.00 0.00 66 1007.9
20260506083040 10 355 12.9 22.5 0.00 0.00 0.00 65 1007.8
20260506082534 10 26 11.3 22.5 0.00 0.00 0.00 65 1007.8
20260506082029 10 69 11.3 20.9 0.00 0.00 0.00 65 1007.7
20260506081530 10 43 11.3 20.9 0.00 0.00 0.00 65 1007.7
20260506081030 10 53 9.7 22.5 0.00 0.00 0.00 65 1007.5
20260506080530 10 23 9.7 22.5 0.00 0.00 0.00 65 1007.5
20260506073030 10 56 9.7 22.5 0.00 0.00 0.00 70 1007.3
20260506072524 10 31 11.3 24.1 0.00 0.00 0.00 70 1007.3
20260506072023 10 10 11.3 24.1 0.00 0.00 0.00 70 1007.3
20260506071524 9 7 9.7 22.5 0.00 0.00 0.00 71 1007.3
20260506071023 9 18 9.7 22.5 0.00 0.00 0.00 72 1007.3
20260506070523 9 43 9.7 20.9 0.00 0.00 0.00 73 1007.3
20260506062019 9 3 6.4 17.7 0.00 0.00 0.00 77 1007.2
20260506061019 8 33 8.0 16.1 0.00 0.00 0.00 77 1007.2
20260506050954 9 37 8.0 17.7 0.00 0.00 0.00 75 1007.3
20260506050449 9 348 8.0 17.7 0.00 0.00 0.00 75 1007.3
20260506044932 9 35 8.0 16.1 0.00 0.00 0.00 73 1007.3
20260506043919 9 20 8.0 20.9 0.00 0.00 0.00 71 1007.3
20260506043414 9 352 6.4 16.1 0.00 0.00 0.00 71 1007.3
20260506042401 9 352 6.4 12.9 0.00 0.00 0.00 71 1007.3
20260506041855 9 38 6.4 12.9 0.00 0.00 0.00 71 1007.3
20260506041350 9 44 6.4 12.9 0.00 0.00 0.00 72 1007.3
20260506040843 9 24 4.8 12.9 0.00 0.00 0.00 72 1007.2
20260506040337 9 45 4.8 11.3 0.00 0.00 0.00 73 1007.3
20260506035831 9 21 4.8 11.3 0.00 0.00 0.00 73 1007.2
20260506035325 9 29 4.8 11.3 0.00 0.00 0.00 73 1007.2
20260506034820 10 35 6.4 16.1 0.00 0.00 0.00 73 1007.2
20260506034313 10 28 6.4 16.1 0.00 0.00 0.00 73 1007.2
20260506033301 10 10 6.4 12.9 0.00 0.00 0.00 73 1007.3
20260506032758 10 43 6.4 12.9 0.00 0.00 0.00 73 1007.3
20260506032257 10 26 6.4 14.5 0.00 0.00 0.00 73 1007.4
20260506031806 10 26 8.0 17.7 0.00 0.00 0.00 73 1007.4
20260506031257 10 8 6.4 17.7 0.00 0.00 0.00 73 1007.4
20260506030757 10 27 6.4 12.9 0.00 0.00 0.00 73 1007.4
20260506030256 10 40 6.4 17.7 0.00 0.00 0.00 73 1007.5
20260506025756 10 8 8.0 17.7 0.00 0.00 0.00 73 1007.6
20260506025255 10 17 8.0 14.5 0.00 0.00 0.00 73 1007.6
20260506024755 10 10 6.4 14.5 0.00 0.03 0.00 74 1007.6
20260506024301 10 15 4.8 17.7 0.00 0.03 0.00 74 1007.7
20260506023756 10 43 6.4 17.7 0.00 0.03 0.00 74 1007.7
20260506022753 10 35 6.4 16.1 0.00 0.03 0.00 75 1007.7
20260506021753 10 37 6.4 16.1 0.00 0.05 0.00 75 1007.7
20260506021249 10 40 6.4 16.1 0.00 0.05 0.00 75 1007.7
20260506020749 10 42 6.4 16.1 0.00 0.05 0.00 75 1007.8
20260506020252 10 23 6.4 16.1 0.00 0.05 0.00 75 1007.8
20260506015744 10 17 6.4 14.5 0.00 0.05 0.00 74 1007.9
20260506014743 10 19 8.0 17.7 0.00 0.08 0.00 74 1007.9
20260506014243 10 11 8.0 17.7 0.00 0.08 0.00 74 1007.9
20260506013742 10 355 8.0 16.1 0.00 0.08 0.00 74 1007.9
20260506013243 10 45 8.0 16.1 0.00 0.08 0.00 74 1007.9
20260506012744 10 33 8.0 17.7 0.00 0.08 0.00 74 1007.9
20260506011743 10 47 6.4 16.1 0.00 0.08 0.00 74 1007.9
20260506011244 10 31 8.0 16.1 0.00 0.08 0.00 74 1007.9
20260506010743 10 20 8.0 20.9 0.00 0.08 0.00 74 1007.9
20260506005744 10 43 6.4 16.1 0.00 0.08 0.00 75 1008.0
20260506004744 10 54 6.4 14.5 0.00 0.08 0.00 75 1008.1
20260506004244 10 18 6.4 16.1 0.00 0.08 0.00 75 1008.1
20260506003742 10 39 6.4 20.9 0.00 0.08 0.00 75 1008.1
20260506003245 10 32 8.0 20.9 0.00 0.10 0.00 75 1008.2
20260506002744 10 35 6.4 14.5 0.00 0.10 0.00 75 1008.2
20260506001741 10 18 4.8 12.9 0.00 0.13 0.00 76 1008.2
20260506000742 10 24 4.8 12.9 0.00 0.13 0.00 76 1008.2
20260506000241 10 47 4.8 12.9 0.00 0.15 0.00 76 1008.3
20260505235741 10 24 6.4 12.9 0.00 0.15 0.00 76 1008.4
20260505235240 10 5 6.4 12.9 0.00 0.15 0.00 76 1008.4
20260505234741 10 47 6.4 12.9 0.00 0.20 0.00 77 1008.4
20260505234240 11 23 6.4 12.9 0.00 0.23 0.00 77 1008.5
20260505233738 10 35 4.8 12.9 0.00 0.28 0.00 77 1008.6
20260505232736 11 16 4.8 11.3 0.00 0.33 0.00 77 1008.5
20260505232238 11 30 4.8 11.3 0.00 0.33 0.00 77 1008.6
20260505231736 11 29 4.8 11.3 0.00 0.33 0.00 77 1008.6
20260505231231 11 38 4.8 11.3 0.00 0.33 0.00 76 1008.6
20260505230724 11 22 3.2 9.7 0.00 0.36 0.00 76 1008.6
20260505230221 11 17 3.2 9.7 0.00 0.36 0.00 76 1008.7
20260505225720 11 33 4.8 12.9 0.00 0.41 0.00 76 1008.6
20260505225222 11 44 4.8 12.9 0.00 0.43 0.00 75 1008.7
20260505224721 11 50 3.2 9.7 0.00 0.46 0.00 75 1008.7
20260505224221 11 36 6.4 14.5 0.00 0.46 0.00 75 1008.7
20260505223222 11 28 4.8 11.3 0.00 0.46 0.00 76 1008.7
20260505222719 11 20 4.8 14.5 0.00 0.46 0.00 76 1008.7
20260505222218 11 57 6.4 14.5 0.00 0.46 0.00 76 1008.8
20260505221720 11 20 4.8 12.9 0.00 0.46 0.00 77 1008.8
20260505221220 11 20 4.8 12.9 0.00 0.46 0.00 77 1008.8
20260505220718 11 5 3.2 12.9 0.00 0.46 0.00 77 1008.8
20260505220219 11 13 3.2 12.9 0.00 0.46 0.00 78 1008.9
20260505215718 11 353 4.8 12.9 0.00 0.46 0.46 78 1009.0
20260505214717 11 2 4.8 11.3 0.00 0.46 0.46 79 1009.1
20260505214218 11 28 4.8 11.3 0.00 0.46 0.46 79 1009.0
20260505212700 11 22 3.2 6.4 0.00 0.46 0.46 81 1009.1
20260505211142 11 10 4.8 9.7 0.00 0.46 0.46 81 1009.2
20260505210636 11 13 4.8 11.3 0.00 0.46 0.46 81 1009.2
20260505210130 11 356 4.8 11.3 0.00 0.46 0.46 81 1009.2
20260505205623 11 359 3.2 8.0 0.00 0.46 0.46 82 1009.2
20260505205118 11 1 3.2 6.4 0.00 0.46 0.46 82 1009.2
20260505204613 11 20 3.2 9.7 0.00 0.46 0.46 82 1009.2
20260505204107 11 11 3.2 9.7 0.00 0.46 0.46 82 1009.1
20260505203056 11 14 3.2 11.3 0.00 0.46 0.46 82 1009.2
20260505202551 11 343 4.8 12.9 0.00 0.46 0.46 82 1009.2